Year,Month,Day,Hour,Minute,Value (Times are PST for temperature in C)
2020,01,17,00,00,-1.90
2020,01,17,00,01,-1.90
2020,01,17,00,02,-1.90
2020,01,17,00,03,-1.90
2020,01,17,00,04,-1.90
2020,01,17,00,05,-1.90
2020,01,17,00,06,-1.80
2020,01,17,00,07,-1.80
2020,01,17,00,08,-1.80
2020,01,17,00,09,-1.80
2020,01,17,00,10,-1.80
2020,01,17,00,11,-1.80
2020,01,17,00,12,-1.80
2020,01,17,00,13,-1.80
2020,01,17,00,14,-1.80
2020,01,17,00,15,-1.80
2020,01,17,00,16,-1.80
2020,01,17,00,17,-1.80
2020,01,17,00,18,-1.80
2020,01,17,00,19,-1.80
2020,01,17,00,20,-1.80
2020,01,17,00,21,-1.80
2020,01,17,00,22,-1.80
2020,01,17,00,23,-1.80
2020,01,17,00,24,-1.80
2020,01,17,00,25,-1.80
2020,01,17,00,26,-1.80
2020,01,17,00,27,-1.80
2020,01,17,00,28,-1.80
2020,01,17,00,29,-1.80
2020,01,17,00,30,-1.80
2020,01,17,00,31,-1.80
2020,01,17,00,32,-1.70
2020,01,17,00,33,-1.70
2020,01,17,00,34,-1.70
2020,01,17,00,35,-1.70
2020,01,17,00,36,-1.70
2020,01,17,00,37,-1.70
2020,01,17,00,38,-1.70
2020,01,17,00,39,-1.70
2020,01,17,00,40,-1.70
2020,01,17,00,41,-1.70
2020,01,17,00,42,-1.70
2020,01,17,00,43,-1.70
2020,01,17,00,44,-1.70
2020,01,17,00,45,-1.70
2020,01,17,00,46,-1.70
2020,01,17,00,47,-1.70
2020,01,17,00,48,-1.70
2020,01,17,00,49,-1.60
2020,01,17,00,50,-1.60
2020,01,17,00,51,-1.60
2020,01,17,00,52,-1.60
2020,01,17,00,53,-1.60
2020,01,17,00,54,-1.60
2020,01,17,00,55,-1.60
2020,01,17,00,56,-1.60
2020,01,17,00,57,-1.60
2020,01,17,00,58,-1.50
2020,01,17,00,59,-1.50
2020,01,17,01,00,-1.50
2020,01,17,01,01,-1.50
2020,01,17,01,02,-1.50
2020,01,17,01,03,-1.50
2020,01,17,01,04,-1.60
2020,01,17,01,05,-1.60
2020,01,17,01,06,-1.60
2020,01,17,01,07,-1.60
2020,01,17,01,08,-1.60
2020,01,17,01,09,-1.60
2020,01,17,01,10,-1.60
2020,01,17,01,11,-1.70
2020,01,17,01,12,-1.70
2020,01,17,01,13,-1.70
2020,01,17,01,14,-1.70
2020,01,17,01,15,-1.70
2020,01,17,01,16,-1.70
2020,01,17,01,17,-1.70
2020,01,17,01,18,-1.70
2020,01,17,01,19,-1.70
2020,01,17,01,20,-1.70
2020,01,17,01,21,-1.70
2020,01,17,01,22,-1.70
2020,01,17,01,23,-1.70
2020,01,17,01,24,-1.70
2020,01,17,01,25,-1.70
2020,01,17,08,45,-6.70
2020,01,17,08,46,-6.70
2020,01,17,08,47,-6.60
2020,01,17,08,48,-6.60
2020,01,17,08,49,-6.60
2020,01,17,08,50,-6.60
2020,01,17,08,51,-6.60
2020,01,17,08,52,-6.60
2020,01,17,08,53,-6.60
2020,01,17,08,54,-6.60
2020,01,17,08,55,-6.60
2020,01,17,08,56,-6.50
2020,01,17,08,57,-6.50
2020,01,17,08,58,-6.50
2020,01,17,08,59,-6.50
2020,01,17,09,00,-6.40
2020,01,17,09,01,-6.40
2020,01,17,09,02,-6.40
2020,01,17,09,03,-6.30
2020,01,17,09,04,-6.30
2020,01,17,09,05,-6.30
2020,01,17,09,06,-6.30
2020,01,17,09,07,-6.30
2020,01,17,09,08,-6.20
2020,01,17,09,09,-6.20
2020,01,17,09,10,-6.10
2020,01,17,09,11,-6.10
2020,01,17,09,12,-6.00
2020,01,17,09,13,-6.00
2020,01,17,09,14,-5.80
2020,01,17,09,15,-5.80
2020,01,17,09,16,-5.60
2020,01,17,09,17,-5.50
2020,01,17,09,18,-5.40
2020,01,17,09,19,-5.30
2020,01,17,09,20,-5.20
2020,01,17,09,21,-5.10
2020,01,17,09,22,-5.00
2020,01,17,09,23,-4.90
2020,01,17,09,24,-4.90
2020,01,17,09,25,-4.80
2020,01,17,09,26,-4.70
2020,01,17,09,27,-4.60
2020,01,17,09,28,-4.50
2020,01,17,09,29,-4.40
2020,01,17,09,30,-4.30
2020,01,17,09,31,-4.30
2020,01,17,09,32,-4.30
2020,01,17,09,33,-4.20
2020,01,17,09,34,-4.20
2020,01,17,09,35,-4.20
2020,01,17,09,36,-4.10
2020,01,17,09,37,-4.00
2020,01,17,09,38,-3.90
2020,01,17,09,39,-3.80
2020,01,17,09,40,-3.70
2020,01,17,09,41,-3.50
2020,01,17,09,42,-3.40
2020,01,17,09,43,-3.40
2020,01,17,09,44,-3.40
2020,01,17,09,45,-3.30
2020,01,17,09,46,-3.30
2020,01,17,09,47,-3.20
2020,01,17,09,48,-3.20
2020,01,17,09,49,-3.20
2020,01,17,09,50,-3.30
2020,01,17,09,51,-3.30
2020,01,17,09,52,-3.20
2020,01,17,09,53,-3.30
2020,01,17,09,54,-3.30
2020,01,17,09,55,-3.40
2020,01,17,09,56,-3.40
2020,01,17,09,57,-3.40
2020,01,17,09,58,-3.40
2020,01,17,09,59,-3.40
2020,01,17,10,00,-3.30
2020,01,17,10,01,-3.30
2020,01,17,10,02,-3.20
2020,01,17,10,03,-3.00
2020,01,17,10,04,-2.90
2020,01,17,10,05,-2.80
2020,01,17,10,06,-2.70
2020,01,17,10,07,-2.70
2020,01,17,10,08,-2.60
2020,01,17,10,09,-2.50
2020,01,17,10,10,-2.40
2020,01,17,10,11,-2.40
2020,01,17,10,12,-2.40
2020,01,17,10,13,-2.40
2020,01,17,10,14,-2.40
2020,01,17,10,15,-2.30
2020,01,17,10,16,-2.20
2020,01,17,10,17,-2.10
2020,01,17,10,18,-2.10
2020,01,17,10,19,-2.10
2020,01,17,10,20,-2.20
2020,01,17,10,21,-2.20
2020,01,17,10,22,-2.20
2020,01,17,10,23,-2.20
2020,01,17,10,24,-2.20
2020,01,17,10,25,-2.10
2020,01,17,10,26,-2.10
2020,01,17,10,27,-2.00
2020,01,17,10,28,-2.00
2020,01,17,10,29,-2.00
2020,01,17,10,30,-2.00
2020,01,17,10,31,-2.00
2020,01,17,10,32,-2.00
2020,01,17,10,33,-1.90
2020,01,17,10,34,-1.90
2020,01,17,10,35,-1.90
2020,01,17,10,36,-1.80
2020,01,17,10,37,-1.90
2020,01,17,10,38,-1.80
2020,01,17,10,39,-1.80
2020,01,17,10,40,-1.80
2020,01,17,10,41,-1.80
2020,01,17,10,42,-1.80
2020,01,17,10,43,-1.70
2020,01,17,10,44,-1.60
2020,01,17,10,45,-1.50
2020,01,17,10,46,-1.40
2020,01,17,10,47,-1.30
2020,01,17,10,48,-1.30
2020,01,17,10,49,-1.30
2020,01,17,10,50,-1.30
2020,01,17,10,51,-1.30
2020,01,17,10,52,-1.30
2020,01,17,10,53,-1.30
2020,01,17,10,54,-1.40
2020,01,17,10,55,-1.40
2020,01,17,10,56,-1.40
2020,01,17,10,57,-1.40
2020,01,17,10,58,-1.40
2020,01,17,10,59,-1.40
2020,01,17,11,00,-1.40
2020,01,17,11,01,-1.30
2020,01,17,11,02,-1.30
2020,01,17,11,03,-1.20
2020,01,17,11,04,-1.10
2020,01,17,11,05,-1.00
2020,01,17,11,06,-0.90
2020,01,17,11,07,-0.90
2020,01,17,11,08,-0.60
2020,01,17,11,09,-0.40
2020,01,17,11,10,-0.30
2020,01,17,11,11,-0.20
2020,01,17,11,12,-0.10
2020,01,17,11,13,0.00
2020,01,17,11,14,0.10
2020,01,17,11,15,0.20
2020,01,17,11,16,0.20
2020,01,17,11,17,0.30
2020,01,17,11,18,0.30
2020,01,17,11,19,0.30
2020,01,17,11,20,0.30
2020,01,17,11,21,0.20
2020,01,17,11,22,0.20
2020,01,17,11,23,0.10
2020,01,17,11,24,0.10
2020,01,17,11,25,0.20
2020,01,17,11,26,0.20
2020,01,17,11,27,0.30
2020,01,17,11,28,0.30
2020,01,17,11,29,0.30
2020,01,17,11,30,0.20
2020,01,17,11,31,0.20
2020,01,17,11,32,0.10
2020,01,17,11,33,0.10
2020,01,17,11,34,0.10
2020,01,17,11,35,0.10
2020,01,17,11,36,0.10
2020,01,17,11,37,0.10
2020,01,17,11,38,0.00
2020,01,17,11,39,-0.10
2020,01,17,11,40,-0.20
2020,01,17,11,41,-0.40
2020,01,17,11,42,-0.50
2020,01,17,11,43,-0.60
2020,01,17,11,44,-0.70
2020,01,17,11,45,-0.70
2020,01,17,11,46,-0.70
2020,01,17,11,47,-0.70
2020,01,17,11,48,-0.70
2020,01,17,11,49,-0.80
2020,01,17,11,50,-0.80
2020,01,17,11,51,-0.80
2020,01,17,11,52,-0.80
2020,01,17,11,53,-0.80
2020,01,17,11,54,-0.80
2020,01,17,11,55,-0.80
2020,01,17,11,56,-0.80
2020,01,17,11,57,-0.80
2020,01,17,11,58,-0.80
2020,01,17,11,59,-0.70
2020,01,17,12,00,-0.70
2020,01,17,12,01,-0.70
2020,01,17,12,02,-0.70
2020,01,17,12,03,-0.70
2020,01,17,12,04,-0.70
2020,01,17,12,05,-0.70
2020,01,17,12,06,-0.70
2020,01,17,12,07,-0.70
2020,01,17,12,08,-0.60
2020,01,17,12,09,-0.60
2020,01,17,12,10,-0.60
2020,01,17,12,11,-0.70
2020,01,17,12,12,-0.60
2020,01,17,12,13,-0.70
2020,01,17,12,14,-0.70
2020,01,17,12,15,-0.80
2020,01,17,12,16,-0.80
2020,01,17,12,17,-0.90
2020,01,17,12,18,-1.00
2020,01,17,12,19,-1.10
2020,01,17,12,20,-1.10
2020,01,17,12,21,-1.10
2020,01,17,12,22,-1.20
2020,01,17,12,23,-1.20
2020,01,17,12,24,-1.10
2020,01,17,12,25,-1.10
2020,01,17,12,26,-1.10
2020,01,17,12,27,-1.10
2020,01,17,12,28,-1.10
2020,01,17,12,29,-1.00
2020,01,17,12,30,-1.00
2020,01,17,12,31,-0.90
2020,01,17,12,32,-0.80
2020,01,17,12,33,-0.80
2020,01,17,12,34,-0.70
2020,01,17,12,35,-0.70
2020,01,17,12,36,-0.70
2020,01,17,12,37,-0.70
2020,01,17,12,38,-0.70
2020,01,17,12,39,-0.70
2020,01,17,12,40,-0.70
2020,01,17,12,41,-0.70
2020,01,17,12,42,-0.70
2020,01,17,12,43,-0.60
2020,01,17,12,44,-0.50
2020,01,17,12,45,-0.50
2020,01,17,12,46,-0.40
2020,01,17,12,47,-0.30
2020,01,17,12,48,-0.30
2020,01,17,12,49,-0.30
2020,01,17,12,50,-0.20
2020,01,17,12,51,-0.20
2020,01,17,12,52,-0.20
2020,01,17,12,53,-0.20
2020,01,17,12,54,-0.20
2020,01,17,12,55,-0.20
2020,01,17,12,56,-0.30
2020,01,17,12,57,-0.30
2020,01,17,12,58,-0.30
2020,01,17,12,59,-0.30
2020,01,17,13,00,-0.30
2020,01,17,13,01,-0.30
2020,01,17,13,02,-0.30
2020,01,17,13,03,-0.30
2020,01,17,13,04,-0.20
2020,01,17,13,05,-0.20
2020,01,17,13,06,-0.10
2020,01,17,13,07,-0.10
2020,01,17,13,08,-0.10
2020,01,17,13,09,-0.10
2020,01,17,13,10,0.00
2020,01,17,13,11,0.00
2020,01,17,13,12,0.10
2020,01,17,13,13,0.10
2020,01,17,13,14,0.10
2020,01,17,13,15,0.10
2020,01,17,13,16,0.10
2020,01,17,13,17,0.10
2020,01,17,13,18,0.10
2020,01,17,13,19,0.10
2020,01,17,13,20,0.10
2020,01,17,13,21,0.10
2020,01,17,13,22,0.10
2020,01,17,13,23,0.10
2020,01,17,13,24,0.10
2020,01,17,13,25,0.10
2020,01,17,13,26,0.10
2020,01,17,13,27,0.10
2020,01,17,13,28,0.10
2020,01,17,13,29,0.10
2020,01,17,13,30,0.10
2020,01,17,13,31,0.10
2020,01,17,13,32,0.10
2020,01,17,13,33,0.10
2020,01,17,13,34,0.10
2020,01,17,13,35,0.10
2020,01,17,13,36,0.10
2020,01,17,13,37,0.10
2020,01,17,13,38,0.10
2020,01,17,13,39,0.10
2020,01,17,13,40,0.10
2020,01,17,13,41,0.10
2020,01,17,13,42,0.00
2020,01,17,13,43,0.00
2020,01,17,13,44,-0.10
2020,01,17,13,45,-0.10
2020,01,17,13,46,-0.10
2020,01,17,13,47,-0.10
2020,01,17,13,48,-0.10
2020,01,17,13,49,-0.10
2020,01,17,13,50,-0.10
2020,01,17,13,51,-0.10
2020,01,17,13,52,-0.10
2020,01,17,13,53,-0.10
2020,01,17,13,54,0.00
2020,01,17,13,55,0.00
2020,01,17,13,56,0.00
2020,01,17,13,57,0.00
2020,01,17,13,58,0.00
2020,01,17,13,59,0.00
2020,01,17,14,00,0.00
2020,01,17,14,01,0.00
2020,01,17,14,02,-0.10
2020,01,17,14,03,-0.10
2020,01,17,14,04,-0.10
2020,01,17,14,05,-0.10
2020,01,17,14,06,-0.10
2020,01,17,14,07,0.00
2020,01,17,14,08,0.00
2020,01,17,14,09,0.10
2020,01,17,14,10,0.10
2020,01,17,14,11,0.10
2020,01,17,14,12,0.10
2020,01,17,14,13,0.10
2020,01,17,14,14,0.10
2020,01,17,14,15,0.10
2020,01,17,14,16,0.10
2020,01,17,14,17,0.00
2020,01,17,14,18,0.00
2020,01,17,14,19,0.00
2020,01,17,14,20,0.10
2020,01,17,14,21,0.10
2020,01,17,14,22,0.10
2020,01,17,14,23,0.10
2020,01,17,14,24,0.10
2020,01,17,14,25,0.20
2020,01,17,14,26,0.20
2020,01,17,14,27,0.20
2020,01,17,14,28,0.20
2020,01,17,14,29,0.20
2020,01,17,14,30,0.20
2020,01,17,14,31,0.20
2020,01,17,14,32,0.20
2020,01,17,14,33,0.10
2020,01,17,14,34,0.10
2020,01,17,14,35,0.10
2020,01,17,14,36,0.10
2020,01,17,14,37,0.10
2020,01,17,14,38,0.10
2020,01,17,14,39,0.10
2020,01,17,14,40,0.10
2020,01,17,14,41,0.10
2020,01,17,14,42,0.10
2020,01,17,14,43,0.10
2020,01,17,14,44,0.10
2020,01,17,14,45,0.10
2020,01,17,14,46,0.10
2020,01,17,14,47,0.10
2020,01,17,14,48,0.20
2020,01,17,14,49,0.20
2020,01,17,14,50,0.20
2020,01,17,14,51,0.20
2020,01,17,14,52,0.20
2020,01,17,14,53,0.20
2020,01,17,14,54,0.20
2020,01,17,14,55,0.20
2020,01,17,14,56,0.20
2020,01,17,14,57,0.10
2020,01,17,14,58,0.10
2020,01,17,14,59,0.10
2020,01,17,15,00,0.10
2020,01,17,15,01,0.10
2020,01,17,15,02,0.10
2020,01,17,15,03,0.10
2020,01,17,15,04,0.10
2020,01,17,15,05,0.10
2020,01,17,15,06,0.10
2020,01,17,15,07,0.10
2020,01,17,15,08,0.10
2020,01,17,15,09,0.00
2020,01,17,15,10,0.00
2020,01,17,15,11,0.00
2020,01,17,15,12,0.00
2020,01,17,15,13,0.00
2020,01,17,15,14,0.00
2020,01,17,15,15,0.00
2020,01,17,15,16,0.00
2020,01,17,15,17,0.00
2020,01,17,15,18,0.00
2020,01,17,15,19,0.00
2020,01,17,15,20,0.00
2020,01,17,15,21,-0.10
2020,01,17,15,22,-0.10
2020,01,17,15,23,-0.10
2020,01,17,15,24,-0.10
2020,01,17,15,25,-0.10
2020,01,17,15,26,-0.10
2020,01,17,15,27,-0.10
2020,01,17,15,28,-0.10
2020,01,17,15,29,-0.10
2020,01,17,15,30,-0.10
2020,01,17,15,31,-0.20
2020,01,17,15,32,-0.20
2020,01,17,15,33,-0.20
2020,01,17,15,34,-0.20
2020,01,17,15,35,-0.20
2020,01,17,15,36,-0.30
2020,01,17,15,37,-0.30
2020,01,17,15,38,-0.30
2020,01,17,15,39,-0.30
2020,01,17,15,40,-0.30
2020,01,17,15,41,-0.30
2020,01,17,15,42,-0.30
2020,01,17,15,43,-0.30
2020,01,17,15,44,-0.30
2020,01,17,15,45,-0.30
2020,01,17,15,46,-0.30
2020,01,17,15,47,-0.40
2020,01,17,15,48,-0.40
2020,01,17,15,49,-0.40
2020,01,17,15,50,-0.40
2020,01,17,15,51,-0.40
2020,01,17,15,52,-0.40
2020,01,17,15,53,-0.40
2020,01,17,15,54,-0.40
2020,01,17,15,55,-0.40
2020,01,17,15,56,-0.40
2020,01,17,15,57,-0.40
2020,01,17,15,58,-0.40
2020,01,17,15,59,-0.40
2020,01,17,16,00,-0.40
2020,01,17,16,01,-0.40
2020,01,17,16,02,-0.40
2020,01,17,16,03,-0.40
2020,01,17,16,04,-0.40
2020,01,17,16,05,-0.40
2020,01,17,16,06,-0.40
2020,01,17,16,07,-0.40
2020,01,17,16,08,-0.40
2020,01,17,16,09,-0.40
2020,01,17,16,10,-0.40
2020,01,17,16,11,-0.40
2020,01,17,16,12,-0.40
2020,01,17,16,13,-0.40
2020,01,17,16,14,-0.40
2020,01,17,16,15,-0.40
2020,01,17,16,16,-0.40
2020,01,17,16,17,-0.40
2020,01,17,16,18,-0.40
2020,01,17,16,19,-0.40
2020,01,17,16,20,-0.40
2020,01,17,16,21,-0.40
2020,01,17,16,22,-0.40
2020,01,17,16,23,-0.40
2020,01,17,16,24,-0.40
2020,01,17,16,25,-0.40
2020,01,17,16,26,-0.40
2020,01,17,16,27,-0.40
2020,01,17,16,28,-0.40
2020,01,17,16,29,-0.40
2020,01,17,16,30,-0.40
2020,01,17,16,31,-0.40
2020,01,17,16,32,-0.40
2020,01,17,16,33,-0.40
2020,01,17,16,34,-0.40
2020,01,17,16,35,-0.40
2020,01,17,16,36,-0.40
2020,01,17,16,37,-0.40
2020,01,17,16,38,-0.40
2020,01,17,16,39,-0.40
2020,01,17,16,40,-0.40
2020,01,17,16,41,-0.40
2020,01,17,16,42,-0.40
2020,01,17,16,43,-0.40
2020,01,17,16,44,-0.40
2020,01,17,16,45,-0.40
2020,01,17,16,46,-0.40
2020,01,17,16,47,-0.40
2020,01,17,16,48,-0.40
2020,01,17,16,49,-0.40
2020,01,17,16,50,-0.40
2020,01,17,16,51,-0.40
2020,01,17,16,52,-0.40
2020,01,17,16,53,-0.40
2020,01,17,16,54,-0.40
2020,01,17,16,55,-0.40
2020,01,17,16,56,-0.40
2020,01,17,16,57,-0.40
2020,01,17,16,58,-0.50
2020,01,17,16,59,-0.50
2020,01,17,17,00,-0.50
2020,01,17,17,01,-0.50
2020,01,17,17,02,-0.50
2020,01,17,17,03,-0.50
2020,01,17,17,04,-0.50
2020,01,17,17,05,-0.50
2020,01,17,17,06,-0.50
2020,01,17,17,07,-0.50
2020,01,17,17,08,-0.60
2020,01,17,17,09,-0.50
2020,01,17,17,10,-0.60
2020,01,17,17,11,-0.60
2020,01,17,17,12,-0.60
2020,01,17,17,13,-0.50
2020,01,17,17,14,-0.50
2020,01,17,17,15,-0.50
2020,01,17,17,16,-0.50
2020,01,17,17,17,-0.50
2020,01,17,17,18,-0.50
2020,01,17,17,19,-0.50
2020,01,17,17,20,-0.50
2020,01,17,17,21,-0.50
2020,01,17,17,22,-0.50
2020,01,17,17,23,-0.50
2020,01,17,17,24,-0.50
2020,01,17,17,25,-0.50
2020,01,17,17,26,-0.50
2020,01,17,17,27,-0.50
2020,01,17,17,28,-0.50
2020,01,17,17,29,-0.50
2020,01,17,17,30,-0.50
2020,01,17,17,31,-0.50
2020,01,17,17,32,-0.50
2020,01,17,17,33,-0.50
2020,01,17,17,34,-0.50
2020,01,17,17,35,-0.40
2020,01,17,17,36,-0.40
2020,01,17,17,37,-0.40
2020,01,17,17,38,-0.40
2020,01,17,17,39,-0.40
2020,01,17,17,40,-0.40
2020,01,17,17,41,-0.40
2020,01,17,17,42,-0.40
2020,01,17,17,43,-0.40
2020,01,17,17,44,-0.40
2020,01,17,17,45,-0.40
2020,01,17,17,46,-0.40
2020,01,17,17,47,-0.30
2020,01,17,17,48,-0.30
2020,01,17,17,49,-0.30
2020,01,17,17,50,-0.30
2020,01,17,17,51,-0.30
2020,01,17,17,52,-0.30
2020,01,17,17,53,-0.30
2020,01,17,17,54,-0.30
2020,01,17,17,55,-0.30
2020,01,17,17,56,-0.30
2020,01,17,17,57,-0.30
2020,01,17,17,58,-0.30
2020,01,17,17,59,-0.30
2020,01,17,18,00,-0.30
2020,01,17,18,01,-0.30
2020,01,17,18,02,-0.30
2020,01,17,18,03,-0.30
2020,01,17,18,04,-0.30
2020,01,17,18,05,-0.30
2020,01,17,18,06,-0.30
2020,01,17,18,07,-0.30
2020,01,17,18,08,-0.30
2020,01,17,18,09,-0.30
2020,01,17,18,10,-0.30
2020,01,17,18,11,-0.30
2020,01,17,18,12,-0.30
2020,01,17,18,13,-0.30
2020,01,17,18,14,-0.30
2020,01,17,18,15,-0.30
2020,01,17,18,16,-0.30
2020,01,17,18,17,-0.30
2020,01,17,18,18,-0.30
2020,01,17,18,19,-0.30
2020,01,17,18,20,-0.30
2020,01,17,18,21,-0.30
2020,01,17,18,22,-0.30
2020,01,17,18,23,-0.30
2020,01,17,18,24,-0.30
2020,01,17,18,25,-0.30
2020,01,17,18,26,-0.30
2020,01,17,18,27,-0.30
2020,01,17,18,28,-0.30
2020,01,17,18,29,-0.30
2020,01,17,18,30,-0.30
2020,01,17,18,31,-0.30
2020,01,17,18,32,-0.30
2020,01,17,18,33,-0.30
2020,01,17,18,34,-0.30
2020,01,17,18,35,-0.30
2020,01,17,18,36,-0.30
2020,01,17,18,37,-0.30
2020,01,17,18,38,-0.30
2020,01,17,18,39,-0.30
2020,01,17,18,40,-0.30
2020,01,17,18,41,-0.30
2020,01,17,18,42,-0.30
2020,01,17,18,43,-0.30
2020,01,17,18,44,-0.30
2020,01,17,18,45,-0.30
2020,01,17,18,46,-0.30
2020,01,17,18,47,-0.30
2020,01,17,18,48,-0.30
2020,01,17,18,49,-0.30
2020,01,17,18,50,-0.30
2020,01,17,18,51,-0.30
2020,01,17,18,52,-0.30
2020,01,17,18,53,-0.30
2020,01,17,18,54,-0.30
2020,01,17,18,55,-0.30
2020,01,17,18,56,-0.30
2020,01,17,18,57,-0.30
2020,01,17,18,58,-0.30
2020,01,17,18,59,-0.30
2020,01,17,19,00,-0.30
2020,01,17,19,01,-0.30
2020,01,17,19,02,-0.30
2020,01,17,19,03,-0.30
2020,01,17,19,04,-0.30
2020,01,17,19,05,-0.30
2020,01,17,19,06,-0.30
2020,01,17,19,07,-0.30
2020,01,17,19,08,-0.30
2020,01,17,19,09,-0.30
2020,01,17,19,10,-0.30
2020,01,17,19,11,-0.30
2020,01,17,19,12,-0.30
2020,01,17,19,13,-0.30
2020,01,17,19,14,-0.30
2020,01,17,19,15,-0.30
2020,01,17,19,16,-0.30
2020,01,17,19,17,-0.30
2020,01,17,19,18,-0.30
2020,01,17,19,19,-0.30
2020,01,17,19,20,-0.30
2020,01,17,19,21,-0.30
2020,01,17,19,22,-0.30
2020,01,17,19,23,-0.30
2020,01,17,19,24,-0.30
2020,01,17,19,25,-0.30
2020,01,17,19,26,-0.30
2020,01,17,19,27,-0.30
2020,01,17,19,28,-0.30
2020,01,17,19,29,-0.30
2020,01,17,19,30,-0.30
2020,01,17,19,31,-0.30
2020,01,17,19,32,-0.30
2020,01,17,19,33,-0.30
2020,01,17,19,34,-0.30
2020,01,17,19,35,-0.30
2020,01,17,19,36,-0.30
2020,01,17,19,37,-0.30
2020,01,17,19,38,-0.30
2020,01,17,19,39,-0.30
2020,01,17,19,40,-0.30
2020,01,17,19,41,-0.30
2020,01,17,19,42,-0.30
2020,01,17,19,43,-0.30
2020,01,17,19,44,-0.30
2020,01,17,19,45,-0.30
2020,01,17,19,46,-0.30
2020,01,17,19,47,-0.30
2020,01,17,19,48,-0.40
2020,01,17,19,49,-0.40
2020,01,17,19,50,-0.40
2020,01,17,19,51,-0.40
2020,01,17,19,52,-0.40
2020,01,17,19,53,-0.40
2020,01,17,19,54,-0.40
2020,01,17,19,55,-0.40
2020,01,17,19,56,-0.40
2020,01,17,19,57,-0.30
2020,01,17,19,58,-0.40
2020,01,17,19,59,-0.30
2020,01,17,20,00,-0.30
2020,01,17,20,01,-0.40
2020,01,17,20,02,-0.40
2020,01,17,20,03,-0.30
2020,01,17,20,04,-0.30
2020,01,17,20,05,-0.30
2020,01,17,20,06,-0.30
2020,01,17,20,07,-0.30
2020,01,17,20,08,-0.30
2020,01,17,20,09,-0.30
2020,01,17,20,10,-0.30
2020,01,17,20,11,-0.30
2020,01,17,20,12,-0.30
2020,01,17,20,13,-0.30
2020,01,17,20,14,-0.30
2020,01,17,20,15,-0.30
2020,01,17,20,16,-0.30
2020,01,17,20,17,-0.30
2020,01,17,20,18,-0.30
2020,01,17,20,19,-0.30
2020,01,17,20,20,-0.30
2020,01,17,20,21,-0.30
2020,01,17,20,22,-0.30
2020,01,17,20,23,-0.30
2020,01,17,20,24,-0.30
2020,01,17,20,25,-0.30
2020,01,17,20,26,-0.30
2020,01,17,20,27,-0.30
2020,01,17,20,28,-0.20
2020,01,17,20,29,-0.20
2020,01,17,20,30,-0.20
2020,01,17,20,31,-0.20
2020,01,17,20,32,-0.20
2020,01,17,20,33,-0.20
2020,01,17,20,34,-0.20
2020,01,17,20,35,-0.20
2020,01,17,20,36,-0.20
2020,01,17,20,37,-0.20
2020,01,17,20,38,-0.20
2020,01,17,20,39,-0.20
2020,01,17,20,40,-0.20
2020,01,17,20,41,-0.20
2020,01,17,20,42,-0.20
2020,01,17,20,43,-0.20
2020,01,17,20,44,-0.20
2020,01,17,20,45,-0.20
2020,01,17,20,46,-0.20
2020,01,17,20,47,-0.20
2020,01,17,20,48,-0.20
2020,01,17,20,49,-0.20
2020,01,17,20,50,-0.20
2020,01,17,20,51,-0.20
2020,01,17,20,52,-0.20
2020,01,17,20,53,-0.20
2020,01,17,20,54,-0.20
2020,01,17,20,55,-0.20
2020,01,17,20,56,-0.20
2020,01,17,20,57,-0.20
2020,01,17,20,58,-0.20
2020,01,17,20,59,-0.20
2020,01,17,21,00,-0.20
2020,01,17,21,01,-0.20
2020,01,17,21,02,-0.20
2020,01,17,21,03,-0.20
2020,01,17,21,04,-0.20
2020,01,17,21,05,-0.20
2020,01,17,21,06,-0.20
2020,01,17,21,07,-0.20
2020,01,17,21,08,-0.20
2020,01,17,21,09,-0.20
2020,01,17,21,10,-0.20
2020,01,17,21,11,-0.20
2020,01,17,21,12,-0.20
2020,01,17,21,13,-0.20
2020,01,17,21,14,-0.20
2020,01,17,21,15,-0.20
2020,01,17,21,16,-0.20
2020,01,17,21,17,-0.20
2020,01,17,21,18,-0.20
2020,01,17,21,19,-0.20
2020,01,17,21,20,-0.20
2020,01,17,21,21,-0.20
2020,01,17,21,22,-0.20
2020,01,17,21,23,-0.20
2020,01,17,21,24,-0.20
2020,01,17,21,25,-0.20
2020,01,17,21,26,-0.20
2020,01,17,21,27,-0.10
2020,01,17,21,28,-0.10
2020,01,17,21,29,-0.10
2020,01,17,21,30,-0.10
2020,01,17,21,31,-0.10
2020,01,17,21,32,-0.10
2020,01,17,21,33,-0.10
2020,01,17,21,34,-0.10
2020,01,17,21,35,-0.10
2020,01,17,21,36,-0.10
2020,01,17,21,37,-0.10
2020,01,17,21,38,-0.10
2020,01,17,21,39,-0.10
2020,01,17,21,40,-0.10
2020,01,17,21,41,-0.10
2020,01,17,21,42,-0.10
2020,01,17,21,43,-0.10
2020,01,17,21,44,-0.10
2020,01,17,21,45,-0.10
2020,01,17,21,46,-0.10
2020,01,17,21,47,-0.10
2020,01,17,21,48,-0.10
2020,01,17,21,49,-0.10
2020,01,17,21,50,-0.10
2020,01,17,21,51,-0.10
2020,01,17,21,52,-0.10
2020,01,17,21,53,-0.10
2020,01,17,21,54,-0.10
2020,01,17,21,55,-0.10
2020,01,17,21,56,-0.10
2020,01,17,21,57,-0.10
2020,01,17,21,58,0.00
2020,01,17,21,59,0.00
2020,01,17,22,00,0.00
2020,01,17,22,01,0.00
2020,01,17,22,02,0.00
2020,01,17,22,03,0.00
2020,01,17,22,04,0.00
2020,01,17,22,05,0.00
2020,01,17,22,06,0.00
2020,01,17,22,07,0.00
2020,01,17,22,08,0.00
2020,01,17,22,09,0.00
2020,01,17,22,10,0.00
2020,01,17,22,11,0.00
2020,01,17,22,12,0.00
2020,01,17,22,13,0.00
2020,01,17,22,14,0.00
2020,01,17,22,15,0.00
2020,01,17,22,16,0.00
2020,01,17,22,17,0.00
2020,01,17,22,18,0.00
2020,01,17,22,19,0.00
2020,01,17,22,20,0.00
2020,01,17,22,21,0.00
2020,01,17,22,22,0.00
2020,01,17,22,23,0.00
2020,01,17,22,24,0.00
2020,01,17,22,25,0.00
2020,01,17,22,26,0.10
2020,01,17,22,27,0.10
2020,01,17,22,28,0.00
2020,01,17,22,29,0.00
2020,01,17,22,30,0.10
2020,01,17,22,31,0.00
2020,01,17,22,32,0.00
2020,01,17,22,33,0.00
2020,01,17,22,34,0.10
2020,01,17,22,35,0.00
2020,01,17,22,36,0.00
2020,01,17,22,37,0.10
2020,01,17,22,38,0.00
2020,01,17,22,39,0.00
2020,01,17,22,40,0.00
2020,01,17,22,41,0.00
2020,01,17,22,42,0.10
2020,01,17,22,43,0.00
2020,01,17,22,44,0.00
2020,01,17,22,45,0.00
2020,01,17,22,46,0.10
2020,01,17,22,47,0.10
2020,01,17,22,48,0.10
2020,01,17,22,49,0.10
2020,01,17,22,50,0.10
2020,01,17,22,51,0.10
2020,01,17,22,52,0.10
2020,01,17,22,53,0.10
2020,01,17,22,54,0.10
2020,01,17,22,55,0.10
2020,01,17,22,56,0.10
2020,01,17,22,57,0.10
2020,01,17,22,58,0.10
2020,01,17,22,59,0.10
2020,01,17,23,00,0.10
2020,01,17,23,01,0.10
2020,01,17,23,02,0.10
2020,01,17,23,03,0.10
2020,01,17,23,04,0.10
2020,01,17,23,05,0.10
2020,01,17,23,06,0.10
2020,01,17,23,07,0.10
2020,01,17,23,08,0.10
2020,01,17,23,09,0.10
2020,01,17,23,10,0.10
2020,01,17,23,11,0.10
2020,01,17,23,12,0.10
2020,01,17,23,13,0.10
2020,01,17,23,14,0.10
2020,01,17,23,15,0.10
2020,01,17,23,16,0.10
2020,01,17,23,17,0.10
2020,01,17,23,18,0.10
2020,01,17,23,19,0.10
2020,01,17,23,20,0.10
2020,01,17,23,21,0.10
2020,01,17,23,22,0.10
2020,01,17,23,23,0.10
2020,01,17,23,24,0.10
2020,01,17,23,25,0.10
2020,01,17,23,26,0.10
2020,01,17,23,27,0.10
2020,01,17,23,28,0.10
2020,01,17,23,29,0.10
2020,01,17,23,30,0.10
2020,01,17,23,31,0.10
2020,01,17,23,32,0.10
2020,01,17,23,33,0.10
2020,01,17,23,34,0.10
2020,01,17,23,35,0.10
2020,01,17,23,36,0.10
2020,01,17,23,37,0.10
2020,01,17,23,38,0.10
2020,01,17,23,39,0.10
2020,01,17,23,40,0.10
2020,01,17,23,41,0.10
2020,01,17,23,42,0.10
2020,01,17,23,43,0.10
2020,01,17,23,44,0.10
2020,01,17,23,45,0.10
2020,01,17,23,46,0.10
2020,01,17,23,47,0.10
2020,01,17,23,48,0.10
2020,01,17,23,49,0.10
2020,01,17,23,50,0.10
2020,01,17,23,51,0.10
2020,01,17,23,52,0.10
2020,01,17,23,53,0.10
2020,01,17,23,54,0.10
2020,01,17,23,55,0.10
2020,01,17,23,56,0.10
2020,01,17,23,57,0.00
2020,01,17,23,58,0.10
2020,01,17,23,59,0.10
